COSMOS 1275 DEB, 42229

Orbit data source: Space-Track

COSMOS 1275 DEB, 42229 is space debris in LEO originally from a launch on Thu, 04 Jun 1981 UTC launched from the Plesetsk Missile And Space Complex (PKMTR). Debris objects in space refer to the collection of defunct objects orbiting the Earth. Examples of debris include non-operational satellites, rocket bodies, and fragments generated from explosions, collisions, or faulty payload assembly.

Loading next visibility...
Identifier
42229, 1981-053UV
Orbit
LEO
Country
Flag of CISCIS
Related business
Manufacturer
Unknown
Mission
Spacecraft
Bus & Motor
Unknown
Mass
Unknown
Launch date (UTC)
1981-06-04 (45 years ago)
Launch vehicle
Unknown
Launch site
Plesetsk Missile And Space Complex (PKMTR)
Object type
Payload
Rocket body
Debris
Shape & HBR
Unknown shape, 0.1 m
Radar Cross Section
Small (<0.1 m²)

Expand to show TLE details & history
Last TLE update: 19 hours ago

TLE from 19 hours ago
0 COSMOS 1275 DEB
1 42229U 81053UV  26235.98595815  .00000333  00000-0  43770-3 0  9997
2 42229  83.0173 323.0386 0220997  74.7648 287.7810 13.48715240626128
Epoch: 2026-08-23T23:39Z
TLE epoch observation values (Epoch: 2026-08-23T23:39:46.784Z)
Latitude
-0°
Longitude
-4.18048°
Altitude
1,032.867 km
Speed
7.358 km/s
True Right ascension
21h 32m 09s
True Declination
0° 00' 00"
Sunlit
Object was in full shadow at epoch
Visualization orbit readout
Latitude
Unknown
Longitude
Unknown
Altitude
Unknown
Speed
Unknown
Apparent Right ascension
Unknown
Apparent Declination
Unknown
Sunlit
N/A
Visualization observer readout
Local Sidereal Time
09:46:19
Azimuth
Unknown
Elevation
Unknown
Doppler factor
Unknown
Orbital elements
Apogee altitude
1,238.863 km
Perigee altitude
909.476 km
Semi-major axis
7,452.307 km
Eccentricity
0.0221
Inclination
83.0173°
RAAN
323.0386°
Arg. of periapsis
74.7648°
True anomaly
285.34976°
Mean anomaly
287.781°
Eccentric anomaly
286.56735°
Mean motion
3.3737 °/min
Orbital period
106.71 mins
BSTAR
0.0004377
Loading maneuver chart data...
Computing Atmospheric mass density...

Documentation

Showing up to 5 results
|